Time,TemperatureF,DewpointF,PressureIn,WindDirection,WindDirectionDegrees,WindSpeedMPH,WindSpeedGustMPH,Humidity,HourlyPrecipIn,Conditions,Clouds,dailyrainin,SoftwareType,DateUTC
2013-03-18 00:53:00,69.0,-99.9,-100.00,WNW,298,8.0,13.0,-999,-99.99,,,-99.99,,2013-03-18 06:53:00,
2013-03-18 01:03:00,69.0,-99.9,-100.00,WNW,298,8.0,13.0,-999,-99.99,,,-99.99,,2013-03-18 07:03:00,
2013-03-18 01:33:00,69.0,-99.9,-100.00,NW,305,7.0,13.0,-999,-99.99,,,-99.99,,2013-03-18 07:33:00,
2013-03-18 01:43:00,69.0,-99.9,-100.00,NW,305,7.0,13.0,-999,-99.99,,,-99.99,,2013-03-18 07:43:00,
2013-03-18 02:10:00,69.0,-99.9,-100.00,WNW,288,4.0,12.0,-999,-99.99,,,-99.99,,2013-03-18 08:10:00,
2013-03-18 02:33:00,69.0,-99.9,-100.00,NW,312,4.0,10.0,-999,-99.99,,,-99.99,,2013-03-18 08:33:00,
2013-03-18 02:43:00,69.0,-99.9,-100.00,NW,312,4.0,10.0,-999,-99.99,,,-99.99,,2013-03-18 08:43:00,
2013-03-18 02:53:00,69.0,-99.9,-100.00,WNW,288,4.0,12.0,-999,-99.99,,,-99.99,,2013-03-18 08:53:00,
2013-03-18 03:02:00,69.0,-99.9,-100.00,WNW,288,4.0,12.0,-999,-99.99,,,-99.99,,2013-03-18 09:02:00,
2013-03-18 04:33:00,65.0,-99.9,-100.00,West,281,4.0,7.0,-999,-99.99,,,-99.99,,2013-03-18 10:33:00,
2013-03-18 04:42:00,65.0,-99.9,-100.00,West,281,4.0,7.0,-999,-99.99,,,-99.99,,2013-03-18 10:42:00,
2013-03-18 04:53:00,65.0,-99.9,-100.00,West,281,4.0,7.0,-999,-99.99,,,-99.99,,2013-03-18 10:53:00,
2013-03-18 05:50:00,66.0,-99.9,-100.00,WNW,285,3.0,5.0,-999,-99.99,,,-99.99,,2013-03-18 11:50:00,
2013-03-18 06:33:00,66.0,-99.9,-100.00,WNW,285,3.0,5.0,-999,-99.99,,,-99.99,,2013-03-18 12:33:00,
2013-03-18 06:43:00,66.0,-99.9,-100.00,WNW,285,3.0,5.0,-999,-99.99,,,-99.99,,2013-03-18 12:43:00,
2013-03-18 08:32:00,63.0,-99.9,-100.00,SSW,205,3.0,4.0,-999,-99.99,,,-99.99,,2013-03-18 14:32:00,
2013-03-18 08:42:00,63.0,-99.9,-100.00,SSW,205,3.0,4.0,-999,-99.99,,,-99.99,,2013-03-18 14:42:00,
2013-03-18 08:52:00,65.0,-99.9,-100.00,SW,226,3.0,6.0,-999,-99.99,,,-99.99,,2013-03-18 14:52:00,
2013-03-18 09:00:00,67.0,-99.9,-100.00,WSW,253,2.0,4.0,-999,-99.99,,,-99.99,,2013-03-18 15:00:00,
2013-03-18 09:02:00,65.0,-99.9,-100.00,SW,226,3.0,6.0,-999,-99.99,,,-99.99,,2013-03-18 15:02:00,
2013-03-18 09:52:00,67.0,-99.9,-100.00,WSW,253,2.0,4.0,-999,-99.99,,,-99.99,,2013-03-18 15:52:00,
2013-03-18 11:00:00,69.0,-99.9,-100.00,SW,221,3.0,5.0,-999,-99.99,,,-99.99,,2013-03-18 17:00:00,
2013-03-18 11:52:00,69.0,-99.9,-100.00,SW,221,3.0,5.0,-999,-99.99,,,-99.99,,2013-03-18 17:52:00,
2013-03-18 13:33:00,73.0,-99.9,-100.00,West,277,4.0,7.0,-999,-99.99,,,-99.99,,2013-03-18 19:33:00,
2013-03-18 13:42:00,73.0,-99.9,-100.00,West,277,4.0,7.0,-999,-99.99,,,-99.99,,2013-03-18 19:42:00,
2013-03-18 13:52:00,73.0,-99.9,-100.00,West,277,4.0,7.0,-999,-99.99,,,-99.99,,2013-03-18 19:52:00,
2013-03-18 14:23:00,76.0,-99.9,-100.00,SW,236,3.0,9.0,-999,-99.99,,,-99.99,,2013-03-18 20:23:00,
2013-03-18 14:33:00,76.0,-99.9,-100.00,SW,236,3.0,9.0,-999,-99.99,,,-99.99,,2013-03-18 20:33:00,
2013-03-18 15:23:00,76.0,-99.9,-100.00,SW,226,5.0,5.0,-999,-99.99,,,-99.99,,2013-03-18 21:23:00,
2013-03-18 15:33:00,76.0,-99.9,-100.00,SW,226,5.0,5.0,-999,-99.99,,,-99.99,,2013-03-18 21:33:00,
2013-03-18 16:34:00,77.0,-99.9,-100.00,North,358,2.0,7.0,-999,-99.99,,,-99.99,,2013-03-18 22:34:00,
2013-03-18 16:43:00,77.0,-99.9,-100.00,North,358,2.0,7.0,-999,-99.99,,,-99.99,,2013-03-18 22:43:00,
2013-03-18 16:53:00,77.0,-99.9,-100.00,North,358,2.0,7.0,-999,-99.99,,,-99.99,,2013-03-18 22:53:00,
2013-03-18 17:40:00,79.0,-99.9,-100.00,West,281,2.0,6.0,-999,-99.99,,,-99.99,,2013-03-18 23:40:00,
2013-03-18 18:23:00,79.0,-99.9,-100.00,West,281,2.0,6.0,-999,-99.99,,,-99.99,,2013-03-19 00:23:00,
2013-03-18 18:33:00,79.0,-99.9,-100.00,West,281,2.0,6.0,-999,-99.99,,,-99.99,,2013-03-19 00:33:00,
2013-03-18 18:53:00,78.0,-99.9,-100.00,SW,227,5.0,8.0,-999,-99.99,,,-99.99,,2013-03-19 00:53:00,
2013-03-18 19:02:00,77.0,-99.9,-100.00,WSW,244,3.0,6.0,-999,-99.99,,,-99.99,,2013-03-19 01:02:00,
2013-03-18 19:12:00,77.0,-99.9,-100.00,WSW,244,3.0,6.0,-999,-99.99,,,-99.99,,2013-03-19 01:12:00,
2013-03-18 20:33:00,75.0,-99.9,-100.00,WSW,237,2.0,5.0,-999,-99.99,,,-99.99,,2013-03-19 02:33:00,
2013-03-18 20:43:00,75.0,-99.9,-100.00,WSW,237,2.0,5.0,-999,-99.99,,,-99.99,,2013-03-19 02:43:00,
2013-03-18 20:53:00,75.0,-99.9,-100.00,WSW,237,2.0,5.0,-999,-99.99,,,-99.99,,2013-03-19 02:53:00,
2013-03-18 21:23:00,73.0,-99.9,-100.00,WSW,243,2.0,4.0,-999,-99.99,,,-99.99,,2013-03-19 03:23:00,
2013-03-18 21:33:00,73.0,-99.9,-100.00,WSW,243,2.0,4.0,-999,-99.99,,,-99.99,,2013-03-19 03:33:00,
2013-03-18 22:23:00,72.0,-99.9,-100.00,NNW,344,1.0,2.0,-999,-99.99,,,-99.99,,2013-03-19 04:23:00,
2013-03-18 22:34:00,72.0,-99.9,-100.00,NNW,344,1.0,2.0,-999,-99.99,,,-99.99,,2013-03-19 04:34:00,